Simultaneous Nadir Overpasses (SNOs) Predictions

Prediction of SNOs between GOES-14 and AQUA Satellite Orbit:

Table of predicted SNOs for the next 14.0 days since TLE Epoch: 5/9/2020
Index Date Time (GOES-14) GOES-14 Lat,Lon AQUA Lat,Lon Distance(km) Time Diff (sec)
1 05/09/2020 08:33:11 0.09,-104.13 0.19,-104.67 61.10 80
2 05/11/2020 08:23:38 0.09,-104.14 -0.40,-101.70 276.08 80
3 05/11/2020 20:45:04 -0.07,-104.23 -0.62,-106.91 304.38 80
4 05/13/2020 20:30:11 -0.08,-104.24 -0.02,-103.95 32.96 80
5 05/15/2020 20:17:58 -0.09,-104.25 0.58,-100.98 370.73 80
6 05/16/2020 08:39:13 0.07,-104.15 0.50,-106.14 226.62 80
7 05/18/2020 08:29:41 0.07,-104.16 -0.17,-103.18 111.63 80
8 05/18/2020 20:51:05 -0.05,-104.28 -0.90,-108.38 466.34 80
9 05/20/2020 08:17:28 0.07,-104.17 -0.77,-100.22 449.94 80
10 05/20/2020 20:38:53 -0.05,-104.29 -0.29,-105.42 128.30 80
11 05/22/2020 20:24:00 -0.05,-104.30 0.33,-102.45 209.52 80




NCC Satellite Simultaneous Nadir Overpasses (SNOs) Prediction Service
